RH
5 5 5 5 5 5 6 6 7 7 7 8 8 8 9 9 9 10 12 13 14 15 16 15 15 15 15 16 15 16 18 19 22 26 29 33 36 38 40 42 46 51 57 63 68 72 76 79 83 86 89 90 90 90 90 87 81 77 74 72 69 66 60 54 53 62 77 89 96 99 98 100 103 102 101 102 104 103 101 101 102 101 101 102 101
4 5 5 4 4 4 5 5 5 6 6 6 7 7 7 7 8 8 8 10 11 13 15 16 16 16 15 15 14 14 14 14 15 16 20 24 27 31 33 35 37 41 46 53 59 63 67 71 76 81 87 91 91 91 93 92 88 82 77 75 73 71 68 64 57 56 62 72 84 92 93 94 97 99 100 102 103 103 102 102 102 101 101 102 102
4 4 4 5 5 4 5 5 4 5 5 5 5 5 5 5 6 6 7 7 8 9 11 13 15 16 16 16 15 14 13 13 12 12 12 15 18 22 25 28 31 33 36 41 47 52 57 63 69 75 80 85 88 91 93 94 92 88 83 79 78 76 73 70 67 62 60 62 70 81 89 92 91 90 93 97 99 104 106 102 100 101 101 101 101
4 4 5 5 5 5 5 5 4 4 4 5 5 5 5 5 5 5 5 6 6 7 8 9 10 13 14 16 16 16 15 13 12 12 11 11 12 14 17 20 24 27 30 32 36 40 45 51 58 66 73 77 80 84 90 93 94 93 90 86 83 82 80 77 72 67 65 65 66 71 80 89 92 88 85 85 88 95 102 101 102 105 104 100 101
4 4 5 5 5 5 5 5 4 4 4 4 5 5 5 5 5 5 5 5 5 5 5 6 7 8 10 11 13 15 15 15 13 12 11 11 10 11 12 13 16 20 24 27 30 32 34 38 45 53 61 68 72 76 83 89 92 94 94 94 92 89 87 85 81 74 69 68 70 72 76 85 92 91 87 83 79 80 86 91 97 102 103 101 102
5 5 4 4 5 4 4 5 4 5 5 4 4 5 5 5 5 5 5 5 5 5 5 5 5 6 6 7 8 10 11 13 13 13 11 10 10 10 10 11 11 13 15 19 24 27 29 30 33 39 45 52 59 67 75 82 87 90 92 95 98 98 96 93 90 85 76 70 70 73 76 83 91 96 96 92 86 79 76 77 81 86 91 94 97
4 4 4 4 5 4 4 5 4 4 4 5 5 5 5 5 5 4 5 5 5 5 5 5 5 5 5 6 6 6 7 8 10 11 11 10 10 9 10 10 10 11 11 12 15 19 24 27 28 30 33 37 42 50 61 70 78 83 87 92 97 101 103 100 96 93 87 79 73 72 74 79 87 96 102 103 100 91 81 75 74 76 78 79 82
4 4 4 4 5 5 5 5 5 5 4 4 5 5 5 5 5 5 5 5 5 5 5 5 5 5 5 5 5 5 6 6 7 7 8 9 9 8 8 9 10 10 11 11 11 12 15 20 24 27 28 30 31 35 43 52 61 70 78 85 93 99 103 103 101 99 96 91 83 76 73 76 82 89 96 103 107 103 97 92 88 88 88 83 76
4 4 4 5 5 5 5 5 5 4 5 5 5 5 5 5 5 5 5 5 5 5 5 5 5 5 5 5 5 5 5 6 6 6 6 7 7 7 7 7 8 9 9 10 11 11 11 13 17 21 25 28 29 30 33 36 43 51 60 70 81 91 97 101 103 102 100 98 95 88 80 78 81 85 91 98 104 106 108 108 104 104 104 99 88
5 5 5 5 5 5 5 5 5 4 4 5 5 5 5 5 5 5 5 5 5 5 5 5 5 5 5 5 5 6 6 6 6 6 6 6 6 6 6 6 6 6 7 8 9 10 11 11 13 15 19 23 27 30 32 33 34 37 42 51 61 72 83 92 99 102 102 101 100 99 95 90 87 87 92 98 103 108 112 111 107 107 107 107 104
4 5 5 5 5 5 5 5 5 5 5 4 5 5 5 5 5 5 5 5 5 5 5 5 5 5 5 5 6 6 6 6 6 6 6 6 6 6 6 6 6 5 5 6 7 8 9 10 12 14 15 18 21 25 29 33 35 35 35 38 44 51 60 70 81 91 98 101 102 101 102 103 100 97 97 100 103 108 111 110 110 110 108 108 108
4 4 4 5 5 5 5 6 6 5 5 5 5 5 5 5 5 5 5 5 5 5 5 5 5 5 5 5 6 6 6 6 6 6 6 5 5 5 6 6 6 6 5 5 6 6 7 8 10 12 14 16 18 21 23 27 31 34 36 37 38 40 43 49 58 68 78 88 95 98 101 104 107 108 108 107 107 108 110 112 113 113 111 110 108
4 4 4 4 5 5 5 5 5 5 5 5 5 5 5 5 5 5 6 6 5 5 5 5 5 5 5 5 5 6 6 6 6 5 5 6 5 5 5 5 5 6 6 6 5 5 6 7 8 9 11 13 16 19 21 23 26 29 33 36 39 40 40 41 45 50 57 64 72 81 90 98 106 110 112 112 111 109 111 113 113 112 111 109 107
4 4 4 4 4 5 5 5 5 5 5 5 5 5 5 5 5 5 5 5 5 5 5 5 5 5 5 5 5 5 6 6 5 5 5 5 6 5 4 5 5 5 6 6 6 6 6 6 7 8 9 10 12 15 18 21 24 26 28 32 36 39 41 43 44 45 47 49 53 59 68 79 92 101 108 114 114 109 108 110 110 112 112 108 106
5 4 4 4 4 4 4 4 4 4 4 4 4 4 4 4 4 4 4 5 5 5 5 4 4 4 4 4 5 5 5 5 5 5 5 5 5 5 5 4 5 5 6 5 5 6 6 6 7 7 7 8 9 11 13 16 20 24 26 28 31 35 38 42 45 47 47 47 48 50 52 58 67 76 88 101 109 110 109 108 108 110 109 108 111
5 5 4 4 4 4 4 4 4 4 4 4 4 4 5 4 4 4 4 5 5 4 5 5 4 4 4 4 4 4 4 5 4 4 5 5 5 4 4 5 5 5 5 6 6 6 6 6 7 7 7 7 8 9 10 12 14 18 22 25 28 32 36 39 42 46 48 49 50 50 50 51 53 57 63 72 83 93 99 104 108 110 109 108 109
4 5 5 4 4 4 4 4 4 5 4 4 5 5 5 5 5 5 5 5 5 5 5 5 4 4 4 4 4 4 4 4 4 4 4 4 4 4 4 4 4 5 5 5 6 6 6 6 6 7 7 7 8 8 8 9 10 13 16 20 24 27 32 36 40 42 45 49 51 53 54 54 53 54 55 58 61 67 73 81 90 97 103 108 110
4 4 4 5 5 4 5 5 5 5 5 5 5 5 5 5 5 5 5 5 5 5 5 5 4 4 4 4 4 5 5 4 4 4 4 4 3 3 4 4 4 4 5 5 5 5 6 6 6 7 7 7 7 8 8 8 8 9 11 15 19 23 26 31 37 40 43 46 49 52 55 57 58 57 57 57 58 59 61 64 67 73 80 87 94
4 5 4 4 5 5 5 5 5 5 5 5 5 5 5 5 5 5 5 5 5 5 5 4 4 4 4 5 5 5 5 5 4 4 4 4 3 3 3 4 4 4 4 4 5 5 6 6 6 6 6 7 7 7 7 8 8 8 8 10 14 18 22 26 31 35 39 43 47 50 54 57 60 62 62 61 60 59 59 60 62 64 66 68 71
4 4 4 4 5 5 5 5 5 5 5 5 5 5 5 5 5 5 5 5 5 5 4 4 4 4 4 4 4 5 5 5 4 4 4 4 4 4 4 4 4 4 4 4 4 5 5 5 6 6 6 6 7 7 7 7 7 8 8 8 10 12 17 21 26 28 32 36 41 46 50 53 57 61 64 65 65 63 61 60 61 62 64 64 64
4 4 4 4 5 5 5 5 5 5 5 5 5 5 5 5 5 5 5 5 5 5 4 4 4 4 4 4 4 4 5 4 4 4 4 4 4 4 4 4 4 4 4 4 4 5 5 5 5 5 5 6 6 7 7 8 7 8 8 8 8 9 11 15 19 22 26 30 34 38 42 47 51 55 60 63 66 67 66 63 62 60 60 61 61
5 5 4 4 5 5 5 5 5 5 6 6 6 5 5 5 5 5 5 5 5 4 4 5 5 4 4 4 4 4 4 4 4 4 4 4 4 4 4 4 4 4 4 4 4 5 5 5 5 5 5 5 6 6 7 8 8 8 8 8 8 8 9 11 14 16 20 24 28 32 35 39 43 48 53 58 62 65 67 67 66 64 62 62 62
5 5 5 5 5 5 5 5 5 6 6 6 6 6 5 5 5 5 5 5 5 5 4 4 5 4 4 4 4 4 4 4 4 4 4 4 4 4 4 4 4 4 4 4 4 5 5 5 5 5 5 5 5 6 6 7 8 8 8 8 8 8 9 10 11 13 15 18 22 27 30 33 37 41 46 51 55 58 63 66 68 68 68 66 66
5 5 5 5 5 5 6 6 6 6 6 6 6 6 6 5 5 5 5 5 5 4 5 5 5 4 4 4 4 4 4 4 4 4 4 4 4 4 4 4 4 4 4 4 4 4 5 4 4 4 5 5 5 5 6 7 8 9 9 9 9 9 9 9 10 11 12 15 17 21 25 28 32 36 40 44 47 50 54 58 62 66 68 69 69
5 5 5 5 5 5 6 6 6 6 6 6 6 6 5 5 5 5 5 5 5 5 4 4 5 4 4 4 4 4 4 4 4 4 4 4 4 4 4 4 4 4 4 4 4 4 4 4 4 4 5 5 5 6 6 7 7 8 9 9 9 9 9 9 10 10 11 12 14 16 19 22 26 29 33 37 41 44 47 50 55 58 62 66 69
5 5 5 5 5 5 6 6 6 6 6 6 6 6 6 5 5 5 5 5 5 5 4 4 4 4 4 4 4 4 4 4 4 4 4 4 4 4 4 4 4 5 4 4 4 4 4 4 4 4 5 5 5 6 6 6 7 7 8 8 9 9 10 10 10 10 10 11 12 13 15 18 21 24 27 31 35 39 43 45 48 51 54 58 62
5 5 5 5 5 5 6 6 6 6 6 6 6 6 6 5 5 5 5 5 4 4 4 4 4 4 4 4 4 4 4 4 4 4 4 4 4 4 4 4 4 4 4 4 4 4 4 4 4 5 5 5 5 6 6 6 6 7 7 7 8 9 10 10 10 10 11 11 12 13 14 15 18 20 23 26 29 33 36 39 43 45 47 50 54
6 5 6 6 6 6 6 6 7 6 6 6 6 5 6 6 5 5 5 5 5 4 4 5 4 4 4 4 4 4 4 4 4 4 4 4 4 4 4 4 4 4 4 4 5 4 4 4 4 4 5 5 5 6 6 6 6 7 7 7 8 8 9 10 11 11 11 12 12 12 13 14 16 17 19 22 24 26 29 33 37 39 41 43 48
6 6 6 6 6 6 6 6 7 6 6 6 5 5 6 6 6 5 5 5 5 4 4 5 4 4 4 4 4 5 4 4 4 4 4 4 4 4 4 4 4 4 4 4 4 4 4 4 4 4 5 5 5 6 6 7 7 7 7 7 8 8 8 9 10 11 11 12 12 12 13 13 14 16 17 19 22 24 26 29 32 34 36 39 42
6 6 6 6 6 7 7 7 7 6 6 6 6 5 6 6 6 6 5 5 6 5 4 5 5 4 4 5 5 5 5 4 4 4 4 4 4 4 5 4 4 4 4 4 4 4 4 4 4 5 5 5 5 5 6 7 7 7 7 7 7 8 8 9 10 10 11 12 13 13 14 14 15 16 16 18 20 21 24 26 28 29 31 33 35
7 6 6 7 7 7 7 7 7 6 6 7 6 6 6 6 7 6 5 5 6 6 5 5 5 5 5 5 5 5 5 5 5 4 5 5 4 4 5 4 5 5 4 5 4 4 5 5 5 5 5 5 5 5 6 6 7 7 8 8 8 8 8 9 9 10 10 12 13 13 15 15 16 16 16 17 18 19 21 22 23 25 26 28 29
7 7 7 7 7 7 7 7 7 6 6 6 7 6 6 6 7 7 6 5 5 5 5 5 5 5 5 5 5 5 5 5 5 5 5 5 5 5 5 4 5 5 4 5 5 4 5 5 5 5 5 5 5 6 6 6 7 7 8 8 8 9 9 9 9 10 10 11 12 13 14 15 15 16 17 17 18 18 19 20 21 22 23 24 25
7 7 7 7 7 7 7 7 6 6 6 6 7 7 7 6 6 7 7 6 5 5 6 5 5 5 5 5 5 5 5 5 5 5 5 5 5 5 5 5 5 5 4 5 5 4 5 5 5 5 5 5 5 6 6 6 7 7 8 8 9 9 10 10 10 10 10 11 11 12 13 13 14 15 16 17 18 19 19 20 20 20 21 22 23
7 7 7 7 7 7 6 6 6 6 5 6 6 7 7 7 6 7 7 7 6 5 5 6 5 5 5 5 5 5 5 5 5 5 5 5 5 5 5 5 5 5 5 5 5 5 5 5 5 5 5 5 6 6 6 6 7 7 8 8 9 9 10 10 11 11 11 11 11 12 12 13 13 14 15 16 17 18 19 20 20 21 21 22 22
7 7 7 7 7 7 6 6 6 6 6 6 6 7 7 7 6 7 7 7 7 6 6 6 6 6 6 5 5 5 5 5 5 5 5 5 5 5 5 5 5 5 5 5 5 5 5 5 5 5 6 6 6 6 6 7 7 8 8 9 9 9 10 10 11 12 12 12 12 12 12 13 13 14 14 15 16 17 18 19 20 21 21 22 23
7 7 7 7 7 7 7 7 7 6 6 6 6 7 7 7 7 7 6 7 7 6 6 6 6 6 6 6 5 6 5 5 5 5 5 5 5 5 5 5 5 5 5 5 5 5 5 5 5 5 6 6 6 7 7 7 8 8 8 9 9 10 10 11 11 12 12 13 13 13 13 14 14 14 15 15 16 16 17 18 19 20 20 21 22
7 7 7 7 7 7 7 7 7 7 6 6 6 6 7 7 7 7 6 7 7 6 6 6 6 6 6 6 6 6 5 5 5 5 5 5 5 5 6 6 6 6 5 5 5 5 5 5 6 6 6 6 7 7 7 8 8 8 9 10 10 10 11 11 12 13 13 14 15 15 15 15 15 15 16 16 16 17 17 18 18 19 19 20 21
8 7 7 7 6 7 7 7 7 7 7 6 6 6 7 7 7 7 6 7 7 6 6 6 6 6 6 6 6 6 6 6 6 5 6 6 5 5 6 6 6 6 6 6 6 6 6 6 6 6 6 7 7 7 8 8 9 9 9 10 10 11 12 12 13 14 15 15 16 16 17 17 17 17 17 17 17 17 18 18 18 19 19 19 19
8 8 7 7 7 6 7 7 7 7 7 7 6 6 6 7 6 6 7 6 6 7 6 6 6 6 6 6 6 6 6 6 6 6 6 6 6 6 6 6 6 6 6 6 6 6 6 6 6 6 7 7 8 8 8 9 9 10 10 11 11 12 13 13 14 15 16 16 17 18 18 18 18 18 18 18 18 18 18 18 18 19 19 19 19
7 7 7 7 7 7 7 7 7 7 7 7 6 6 6 6 6 6 6 6 6 6 6 6 6 6 6 6 6 6 6 6 6 6 6 6 6 6 6 6 6 6 6 6 7 7 7 7 7 7 7 8 8 9 9 9 10 10 11 11 12 12 13 14 14 15 16 16 17 18 18 19 19 19 19 19 18 19 19 19 19 19 19 19 20
7 7 6 6 7 7 7 7 7 7 7 6 6 6 6 6 6 6 6 6 6 6 6 6 6 6 6 6 6 6 7 7 7 6 7 7 7 7 6 6 6 6 6 7 7 7 7 7 7 7 8 8 8 9 9 10 10 11 11 12 13 13 14 14 15 15 16 16 17 17 18 18 19 19 19 20 20 20 20 20 20 20 20 21 21
7 6 6 6 7 7 7 7 7 7 7 6 6 6 6 6 6 6 6 6 6 6 7 7 6 6 7 7 7 7 7 7 7 7 7 7 7 7 7 7 7 7 7 7 7 7 7 7 8 8 8 8 8 9 10 10 11 11 12 13 13 14 14 15 15 16 16 17 17 18 18 19 19 19 20 20 20 21 21 21 21 21 21 21 21
7 7 6 6 6 6 6 7 6 6 7 6 6 6 6 6 6 6 6 6 7 6 7 7 7 7 7 7 7 7 7 7 7 7 7 7 8 7 7 8 8 8 8 8 8 8 8 8 8 8 8 9 9 9 10 10 11 11 12 13 14 14 15 15 16 16 17 17 18 18 19 19 20 20 20 21 21 21 21 21 21 21 21 22 22
7 7 7 6 6 6 6 6 6 6 6 6 6 6 6 6 6 7 7 7 7 7 7 7 7 7 7 7 7 7 7 7 8 8 8 8 8 8 8 8 8 8 8 8 8 9 8 8 9 9 9 9 9 9 10 10 11 11 12 13 14 14 15 16 16 17 17 18 18 19 19 19 20 20 20 21 21 21 22 23 24 25 26 27 28
7 7 6 6 7 6 6 6 6 6 6 6 7 7 6 6 6 7 7 7 7 7 7 7 7 7 7 8 8 8 8 8 8 8 8 8 8 9 9 9 9 9 9 9 9 9 9 9 9 9 10 10 10 10 11 11 11 11 12 13 13 14 15 16 16 17 18 18 19 19 20 20 21 22 22 23 24 25 26 27 28 29 29 30 29
7 7 6 6 6 6 6 6 6 6 6 7 7 7 7 6 6 6 6 7 8 8 8 8 8 8 8 8 8 9 9 9 9 9 9 9 9 9 9 10 10 10 9 10 10 10 10 10 10 10 10 11 11 11 12 12 12 12 12 12 13 14 14 14 15 16 17 18 18 19 20 21 21 22 23 24 24 25 25 25 24 24 23 22 21
7 7 6 6 6 6 6 7 7 7 7 7 7 7 7 7 7 6 6 6 7 8 8 8 8 8 8 8 9 9 9 9 9 10 10 10 10 10 10 10 10 11 11 11 11 11 11 11 11 11 11 12 12 12 12 12 13 13 13 13 13 13 13 14 14 14 15 15 16 16 17 17 18 18 19 19 19 19 19 19 19 18 17 17 17
7 7 7 7 6 6 6 6 6 7 6 6 6 6 7 7 7 7 6 6 6 7 7 8 8 8 8 8 9 9 9 10 10 10 11 10 10 10 11 11 11 11 12 12 12 13 13 12 12 12 13 13 13 13 13 13 13 14 14 14 14 14 14 15 15 15 16 16 16 16 17 17 16 17 17 17 17 18 18 18 18 17 18 18 19
7 7 7 7 7 7 7 7 6 6 6 6 6 6 6 6 6 6 7 7 6 6 7 7 8 8 8 8 9 9 9 10 10 11 11 11 11 11 11 12 12 12 13 13 14 14 14 14 14 14 14 15 15 15 15 15 15 15 15 15 16 16 17 17 18 18 18 19 19 19 19 19 19 20 20 20 20 20 20 20 21 21 21 22 22
7 7 7 7 7 7 7 7 7 6 6 6 6 6 6 7 7 7 7 7 7 7 7 7 7 8 8 8 8 9 9 9 10 10 11 11 12 12 12 13 13 13 13 14 14 15 16 16 16 16 16 16 16 16 17 17 17 17 17 18 18 18 18 18 19 20 20 21 22 22 22 22 23 23 23 22 22 22 23 23 23 23 23 23 23
6 6 6 6 6 7 7 6 6 6 6 6 6 6 6 7 7 7 7 8 7 7 7 7 7 8 8 8 8 8 9 9 9 10 10 11 12 12 13 13 13 14 14 14 15 16 17 18 18 18 17 18 18 18 18 19 19 19 19 20 20 20 20 20 21 21 21 22 22 23 23 24 24 24 24 23 23 23 24 25 25 25 25 25 25
Wind_Speed
101 102 103 104 105 106 107 109 110 111 113 114 116 117 118 119 120 121 123 125 127 128 129 129 129 128 128 127 126 126 126 127 127 127 128 128 129 130 131 131 132 132 133 135 136 137 138 138 138 137 137 137 137 136 136 136 135 135 134 133 133 132 131 131 130 131 134 138 141 143 145 145 145 145 145 145 146 146 145 145 144 144 143 142 141
97 98 99 101 102 103 104 105 106 108 109 110 112 113 115 117 118 118 119 121 123 125 127 129 130 130 130 130 129 128 128 128 127 127 128 128 129 130 131 131 132 132 133 134 135 137 138 138 138 138 139 139 139 138 138 138 138 137 136 135 134 134 133 132 130 130 131 134 136 139 142 145 147 147 146 146 147 148 149 149 148 148 147 146 145
94 95 96 97 99 100 101 102 102 103 105 107 108 110 111 113 114 115 116 117 119 120 122 125 128 130 131 131 131 131 130 129 129 129 128 128 129 130 130 131 132 132 133 134 135 136 137 138 138 139 140 140 140 140 139 140 140 139 138 137 136 135 135 134 133 131 130 132 134 136 138 141 144 147 148 149 149 150 150 151 151 150 150 149 149
90 92 93 94 96 97 98 99 99 100 100 102 103 105 107 109 110 111 112 114 115 117 118 120 123 125 128 130 131 132 132 131 130 130 129 129 129 130 130 131 131 132 133 133 135 136 137 137 138 139 140 141 141 141 141 141 141 141 140 139 138 137 136 136 135 134 132 131 133 134 135 137 140 143 146 148 150 150 151 151 151 151 151 151 151
87 88 89 91 92 94 95 96 97 97 98 98 99 100 102 104 106 107 108 110 111 113 114 116 118 120 123 126 128 130 131 132 131 130 130 129 129 130 130 131 131 131 132 133 134 135 136 137 137 138 139 140 141 142 142 142 142 142 142 141 140 140 139 138 138 137 135 134 133 134 135 135 137 139 141 144 146 148 150 151 152 152 152 152 152
84 85 86 88 89 90 91 92 93 95 96 96 97 97 98 100 101 103 105 106 108 109 111 112 114 116 118 121 123 126 128 129 130 131 130 129 129 129 130 131 131 131 131 132 133 135 136 136 137 138 139 140 140 141 142 143 143 144 143 142 142 142 142 141 140 139 138 136 135 135 135 135 136 136 138 139 141 143 145 147 149 151 153 153 152
80 81 82 83 85 86 87 88 89 91 92 92 93 95 96 97 98 99 100 102 103 105 107 108 109 111 113 115 118 120 123 125 127 129 129 129 128 127 127 129 130 131 131 131 132 133 134 135 136 137 138 139 140 140 141 142 143 143 144 143 143 144 144 144 143 142 141 140 138 137 137 136 136 136 137 137 138 140 141 142 143 145 148 150 151
75 76 78 79 80 81 83 84 85 86 87 88 89 91 92 93 94 95 96 98 99 101 103 105 106 107 108 110 112 114 117 120 123 125 127 127 127 126 126 126 127 128 130 131 131 132 132 133 134 136 137 138 139 139 140 142 142 143 143 144 144 145 145 145 145 144 143 142 141 140 138 138 137 138 138 138 138 137 137 138 138 139 141 144 147
71 72 73 74 76 77 78 80 81 82 83 83 85 86 88 88 89 90 92 93 95 97 98 100 102 104 106 107 108 109 111 114 117 120 123 124 125 125 125 124 125 125 127 128 129 130 130 131 132 133 135 136 137 138 139 140 141 142 142 143 144 145 145 146 146 146 145 144 144 143 141 140 139 139 139 139 138 137 137 137 137 137 138 141 143
67 69 70 71 72 73 75 76 77 78 78 79 80 82 83 84 85 86 87 88 90 92 94 96 98 100 102 103 105 106 108 109 112 114 117 119 121 123 123 123 123 123 123 124 125 126 127 128 129 131 132 134 135 136 137 138 139 140 141 142 143 144 144 145 146 146 146 146 145 144 143 142 141 140 140 140 140 140 140 139 139 139 139 140 141
65 66 67 68 69 70 72 73 74 75 75 75 77 78 79 80 81 82 83 84 85 86 88 90 92 94 96 98 101 103 105 107 109 110 112 113 115 118 120 120 120 119 120 120 121 122 123 124 126 128 130 132 133 134 135 136 137 138 139 140 141 142 143 144 145 146 146 146 146 145 144 143 143 143 142 142 142 142 142 142 142 142 142 142 142
64 64 65 66 67 68 69 70 72 73 74 73 74 76 77 77 78 79 81 81 82 82 83 85 87 89 91 93 95 98 101 103 106 107 109 109 110 112 114 115 116 116 115 116 117 118 120 121 123 125 127 129 130 132 133 134 135 136 137 138 139 141 142 143 144 144 145 146 146 145 145 144 144 144 144 144 144 144 145 145 145 145 144 144 143
63 63 63 64 65 66 67 68 70 71 72 72 72 73 74 75 76 78 79 80 80 80 81 82 83 85 87 89 91 93 95 98 101 103 104 106 107 107 107 108 111 112 112 112 112 113 116 119 121 123 124 126 128 129 131 133 134 134 135 136 137 138 140 141 142 143 143 144 144 144 144 143 144 144 144 145 146 147 147 147 147 147 147 146 146
62 62 62 62 63 64 65 66 68 69 70 70 70 71 72 72 73 74 76 78 79 79 80 80 81 82 84 86 88 89 91 94 96 98 100 101 103 103 102 102 104 107 109 109 108 109 111 115 118 120 122 124 125 127 129 130 132 133 134 135 135 137 138 139 140 141 141 142 142 142 142 142 143 144 144 146 147 148 148 148 148 148 148 149 149
61 61 61 60 61 62 63 64 65 66 67 68 68 69 69 70 70 71 72 74 76 77 78 78 79 80 81 82 84 86 88 91 93 94 96 97 98 99 98 97 98 100 103 105 106 106 107 109 112 115 119 122 124 126 127 128 130 131 132 133 134 135 135 136 137 139 139 140 140 141 141 141 142 142 143 145 146 148 148 148 148 149 150 150 150
59 59 60 60 60 60 61 62 63 64 65 66 66 67 68 68 69 69 69 71 72 73 74 76 77 78 78 79 80 81 84 87 89 91 93 94 95 95 94 94 94 95 97 100 102 103 104 104 106 109 114 118 122 124 126 126 127 129 130 131 132 133 134 134 135 136 137 138 139 139 140 140 141 141 142 143 144 146 147 148 148 148 149 149 149
57 57 58 59 59 59 59 60 61 61 62 63 64 64 65 66 67 67 67 68 69 70 71 72 74 74 75 76 77 78 81 84 86 88 89 90 91 90 90 90 91 91 93 95 97 98 99 100 101 104 108 113 118 121 124 125 126 126 127 129 130 131 131 133 134 135 136 137 137 138 138 139 140 140 141 141 142 143 144 145 146 146 147 147 148
55 56 56 57 57 57 58 58 59 59 59 60 61 62 63 63 64 64 64 65 66 67 68 69 70 71 71 72 74 75 78 82 84 84 85 87 87 86 86 86 87 88 89 91 93 94 95 96 98 100 103 107 112 117 120 122 123 124 125 126 128 129 129 131 132 134 135 136 136 137 137 138 138 139 140 140 141 141 142 142 143 144 145 146 146
55 55 55 55 55 56 56 57 57 57 57 58 59 60 61 61 61 62 62 63 64 65 66 66 66 67 67 69 70 72 75 79 81 82 82 83 83 82 82 82 83 84 85 87 88 90 92 95 96 97 99 101 105 110 114 117 120 122 123 124 126 127 128 129 131 132 133 134 135 136 137 137 137 138 139 139 140 141 141 141 142 142 143 144 145
54 54 54 54 54 54 55 56 56 56 55 56 57 58 58 59 60 60 60 60 62 63 64 63 63 64 64 65 66 68 71 75 78 79 80 80 80 79 79 79 80 80 81 82 84 86 89 93 95 96 96 97 99 104 108 112 116 119 121 122 123 125 127 129 130 131 131 132 133 134 135 136 137 138 138 139 140 140 140 141 141 142 142 143 143
54 53 52 52 52 52 53 54 54 54 54 54 55 56 56 57 58 58 58 59 60 61 61 61 61 63 62 62 63 65 67 70 74 75 76 77 77 76 76 77 78 78 78 79 80 82 86 90 93 94 93 93 95 98 102 107 110 114 117 119 120 121 124 127 129 129 130 131 131 132 133 134 135 136 137 138 139 139 140 140 141 141 142 142 142
53 53 52 51 50 50 51 52 52 52 53 53 54 55 55 55 55 56 56 58 59 59 59 59 60 61 60 60 60 62 64 66 69 70 71 73 74 74 74 76 77 76 76 76 77 80 83 87 90 91 91 91 92 94 97 101 105 108 112 115 116 118 120 123 126 128 129 129 130 131 131 131 132 133 134 136 137 138 139 139 139 140 140 140 141
53 53 52 51 49 49 49 49 49 50 51 51 52 53 54 54 54 54 54 56 57 57 57 57 58 58 58 58 59 60 61 62 64 66 67 69 71 71 71 73 74 74 74 75 75 78 81 84 86 87 88 89 90 92 93 96 99 103 107 109 112 115 117 119 122 125 127 128 129 129 130 130 130 131 132 133 134 135 136 137 137 138 138 138 139
53 52 52 51 50 49 48 48 48 48 48 49 50 51 52 53 53 53 53 54 55 55 54 55 56 56 56 56 56 57 59 59 60 62 64 66 67 68 68 70 72 72 73 74 75 76 78 80 82 83 83 85 87 89 90 92 95 99 103 105 107 111 113 116 118 121 123 125 127 128 128 129 129 129 130 131 131 132 133 134 134 135 136 136 136
52 51 51 50 50 49 48 47 47 47 47 47 48 49 50 51 51 51 50 52 53 53 53 53 53 54 54 54 54 55 56 57 57 58 60 61 63 64 65 67 69 70 72 73 73 73 74 76 77 78 79 81 84 86 88 91 94 97 99 101 104 107 109 111 114 117 119 122 124 125 126 127 127 128 128 129 130 130 130 131 131 132 133 133 134
51 50 50 50 49 48 48 47 47 47 47 46 46 47 49 50 49 48 48 49 50 50 51 51 51 51 52 52 52 53 53 54 54 54 55 57 59 61 62 64 66 68 70 71 72 71 71 71 73 74 76 78 81 83 86 89 91 94 97 98 100 102 104 107 110 112 115 117 119 121 123 124 125 126 127 128 128 128 129 129 130 130 131 131 132
49 49 48 48 48 47 46 46 47 47 46 46 45 46 47 48 48 47 46 47 48 47 48 49 49 49 50 50 50 50 51 52 52 52 52 53 54 56 58 60 62 64 67 68 69 70 69 69 70 72 73 75 77 79 83 85 88 91 93 95 97 99 100 102 105 108 110 112 115 117 119 121 123 124 125 126 127 127 127 128 128 129 129 129 130
48 47 47 47 47 46 45 45 45 46 46 46 45 45 46 47 48 47 46 46 46 46 46 47 48 47 47 47 47 48 49 49 49 50 50 50 51 52 54 56 58 61 63 64 66 67 68 68 68 69 71 73 74 76 79 82 84 87 89 91 94 96 97 99 101 104 106 108 111 113 115 117 119 121 122 123 124 125 125 126 127 127 127 128 128
48 47 46 47 46 45 44 44 44 45 45 46 45 44 44 45 47 46 45 45 46 46 44 45 47 46 45 45 46 46 46 47 47 47 48 48 49 49 50 52 54 57 58 60 62 64 65 66 66 67 69 71 72 74 76 79 81 84 86 89 91 93 95 96 98 100 102 104 106 108 110 112 115 117 118 120 121 122 123 124 125 126 126 127 127
48 47 46 46 45 44 44 43 43 43 44 45 45 44 43 43 45 46 44 43 44 46 45 43 45 45 44 44 44 44 44 45 45 45 46 46 47 47 48 49 51 52 54 56 58 60 61 63 64 65 67 69 71 72 74 76 79 81 84 86 88 90 92 93 95 97 98 100 102 104 106 108 110 112 114 116 118 119 121 122 123 124 125 125 126
49 48 47 46 44 44 43 43 43 42 41 43 44 44 42 41 43 46 46 42 41 44 45 43 43 43 43 42 43 43 43 43 43 43 44 45 45 46 46 47 48 49 51 52 54 56 57 59 61 63 65 67 69 70 71 73 76 78 81 83 85 87 89 90 92 94 95 97 99 101 102 104 106 108 110 112 114 116 117 119 120 121 122 123 124
48 48 47 46 44 43 43 44 43 42 41 40 42 43 42 40 39 42 45 44 40 41 43 43 41 42 42 41 41 42 41 41 42 42 43 43 44 44 45 45 46 47 48 50 51 52 54 56 58 60 62 64 66 67 69 70 72 75 77 80 82 84 86 88 89 91 93 94 96 98 99 101 102 104 105 107 109 111 112 114 116 117 118 120 121
48 47 47 46 45 44 43 43 44 43 41 39 40 41 41 40 38 38 42 44 41 39 40 42 41 40 40 40 40 40 40 40 40 41 42 42 42 42 43 43 44 45 46 47 48 49 50 52 54 56 58 61 62 64 65 67 69 71 74 77 79 81 83 85 86 88 90 91 93 95 96 98 99 100 101 102 103 105 107 108 110 112 114 115 116
46 46 45 45 45 44 43 43 44 44 41 39 38 39 40 40 39 37 38 41 42 40 38 39 39 39 39 39 39 39 39 39 39 40 40 40 40 41 41 41 42 43 44 44 45 46 47 49 51 53 55 57 59 60 62 64 65 68 71 74 76 78 80 82 83 85 87 88 90 91 93 94 95 96 97 98 99 100 101 102 104 106 107 109 110
45 44 44 44 44 44 43 43 43 44 42 39 37 37 38 38 38 37 36 38 40 39 38 37 37 37 37 37 37 37 37 37 38 38 38 38 38 39 39 39 40 41 41 42 43 44 45 47 48 50 52 54 56 57 59 60 62 64 67 70 73 75 77 79 80 82 83 85 86 88 89 90 91 92 93 94 94 95 96 97 98 99 101 102 103
45 44 43 43 43 43 43 43 43 44 43 40 36 36 37 37 37 36 36 36 37 38 37 37 36 35 35 36 36 36 36 36 36 37 37 37 37 37 37 38 38 39 40 41 42 43 44 45 46 48 49 51 53 54 56 58 60 62 64 67 69 72 74 76 78 79 80 81 83 84 85 86 87 88 89 90 91 91 92 93 94 95 96 97 98
45 44 43 43 42 42 42 42 42 43 43 41 37 35 35 36 36 35 35 35 36 36 36 36 35 34 34 34 34 34 34 35 35 35 35 35 36 36 36 36 37 37 38 39 40 41 42 43 45 46 47 48 50 52 54 55 57 59 61 63 66 68 70 72 74 75 76 78 79 80 81 83 84 84 85 86 87 88 89 89 90 91 92 93 94
45 44 44 43 42 41 41 40 40 41 42 41 38 35 34 34 35 34 34 34 34 35 35 35 35 34 33 33 33 33 33 33 34 33 33 34 35 35 35 35 36 36 36 37 38 39 41 42 43 44 45 46 48 49 51 53 54 56 58 60 62 64 66 68 70 71 73 74 75 76 78 79 80 81 82 83 84 85 85 86 87 88 88 89 90
44 44 43 43 42 41 40 39 39 39 40 39 37 35 34 33 33 33 33 33 33 34 34 34 34 33 33 33 33 33 33 33 33 33 32 33 33 34 34 34 35 35 35 36 36 37 39 40 42 43 44 45 46 47 49 50 52 53 55 57 59 61 63 65 67 68 69 71 72 73 75 76 77 78 79 80 81 82 82 83 84 85 85 86 86
44 43 42 41 41 40 39 38 37 37 38 38 36 35 34 33 33 32 32 32 33 33 34 34 34 33 33 33 33 33 33 33 33 33 33 32 33 33 33 34 34 35 35 35 36 36 37 38 39 41 42 44 45 46 47 48 50 51 53 54 56 58 60 62 63 65 66 68 69 71 72 73 74 75 76 77 77 78 79 80 80 81 82 82 83
44 43 42 41 40 39 38 37 36 36 36 36 36 34 33 33 33 32 32 32 32 32 32 33 33 33 33 33 33 33 33 33 34 33 33 33 33 33 33 33 34 34 34 35 35 36 36 37 38 39 41 42 43 45 46 47 48 49 51 52 54 55 57 58 60 62 63 64 66 67 68 69 70 71 72 72 73 74 75 76 76 77 78 79 80
44 43 42 41 40 38 37 36 36 36 36 36 35 34 33 33 33 33 33 32 33 32 32 32 33 33 33 33 33 33 33 34 34 34 34 34 34 34 33 34 34 34 34 35 35 36 36 37 37 38 39 40 41 43 44 46 47 48 50 51 52 53 55 56 57 58 60 61 62 63 64 65 66 67 68 69 70 71 72 73 73 74 75 76 77
43 43 42 41 40 38 37 36 35 35 35 36 36 35 34 33 33 34 34 33 33 33 33 33 33 32 33 33 34 34 34 34 34 34 34 34 34 34 34 34 34 34 34 35 35 36 36 36 37 38 38 39 40 41 42 44 45 46 48 49 51 52 53 54 55 56 57 59 60 61 62 63 64 64 65 66 67 68 69 70 70 71 72 72 73
41 41 41 40 39 38 37 36 35 35 35 36 37 37 36 35 34 34 34 35 35 34 34 34 34 33 33 33 34 34 34 34 34 34 34 34 35 35 35 35 35 35 35 35 35 36 36 37 37 37 38 39 39 40 41 42 43 44 46 47 48 50 51 52 53 54 55 56 58 59 60 61 61 62 63 64 64 65 66 66 67 67 68 69 70
41 40 40 39 38 38 37 36 35 35 35 36 37 38 38 37 36 35 35 35 36 36 35 35 35 35 34 33 33 34 34 34 34 34 35 35 35 35 35 35 35 35 35 35 36 36 37 37 37 38 38 38 39 39 40 41 42 43 44 45 46 47 48 49 50 52 53 54 55 56 57 58 58 59 60 61 62 62 63 64 65 65 66 67 68
42 41 40 39 38 37 37 37 37 36 36 36 36 37 38 39 38 37 35 35 36 37 37 36 36 36 36 35 34 34 34 34 34 34 35 35 35 35 35 35 35 35 35 35 36 36 37 37 38 38 38 38 39 39 40 41 42 42 44 45 46 46 47 48 49 50 51 52 53 54 55 55 56 57 58 59 60 61 62 62 63 64 65 65 65
42 42 42 41 39 38 38 38 38 38 38 37 37 37 37 38 39 38 36 35 35 36 37 37 37 37 37 36 36 35 34 34 34 34 35 35 35 34 34 35 35 35 35 35 35 36 36 37 38 38 38 39 39 40 40 41 41 42 43 44 44 45 46 47 48 48 49 50 51 51 52 53 54 55 56 57 58 58 59 60 60 61 61 62 62
42 42 42 42 41 41 40 40 39 39 39 39 38 37 37 37 37 38 37 36 35 34 35 36 36 36 37 37 37 36 35 35 34 34 35 35 35 34 34 34 35 35 35 35 35 35 36 37 37 38 38 39 39 40 41 41 42 42 42 43 43 43 44 45 45 46 47 48 48 49 50 51 52 52 53 54 55 56 56 57 58 58 58 59 59
42 41 41 41 41 41 41 41 41 41 40 39 38 38 37 37 36 36 37 36 35 34 34 34 35 36 36 36 36 36 36 36 35 35 35 35 35 34 34 34 34 35 35 35 35 36 36 36 37 37 38 39 39 40 41 42 42 42 42 42 42 43 43 44 44 45 45 46 47 47 48 49 50 51 52 52 53 54 54 55 55 55 56 57 57
41 41 41 41 41 41 41 42 42 41 41 40 39 38 37 36 36 36 36 36 36 35 34 33 34 34 35 35 35 36 36 36 36 35 35 35 35 35 34 34 34 34 35 35 35 35 35 36 36 37 38 39 39 40 41 41 42 42 42 43 43 43 44 44 44 45 45 46 46 47 48 48 49 50 51 51 52 52 52 53 53 54 54 55 56
41 41 41 41 41 41 41 41 41 41 41 40 39 38 38 37 37 37 36 36 36 36 35 34 33 33 34 34 34 34 35 36 36 36 35 35 35 35 34 34 34 34 34 34 34 35 35 36 36 37 37 38 39 39 40 40 41 42 42 42 43 43 43 44 44 45 45 45 46 46 47 47 48 49 50 50 50 50 51 51 51 52 53 53 54
Wind_Direction
267 267 266 265 265 264 263 262 261 261 260 260 260 259 259 258 257 256 255 255 256 256 257 257 257 256 255 255 254 253 252 251 250 250 249 248 248 247 247 247 246 245 245 245 245 245 245 245 245 245 245 245 245 246 246 246 246 246 246 246 246 245 245 244 243 242 243 245 246 246 245 244 243 244 244 245 246 246 246 246 246 246 246 247 247
269 268 267 266 266 265 264 263 262 261 260 260 259 259 259 258 258 257 256 255 255 254 255 255 256 256 256 256 255 254 253 252 251 251 250 249 248 248 247 247 246 246 245 245 245 245 245 244 244 244 244 244 245 245 245 246 246 246 246 246 246 246 245 245 243 242 242 243 245 247 247 246 245 244 244 245 246 247 247 247 247 247 247 248 248
269 269 268 267 267 266 265 264 262 261 260 260 259 259 259 258 258 258 257 256 255 254 254 254 254 255 255 255 255 255 254 253 252 251 250 250 249 248 247 247 246 246 246 245 245 245 244 244 244 244 244 244 244 244 245 245 246 246 246 246 246 246 246 246 245 243 242 242 244 245 247 248 248 247 245 245 245 246 247 248 248 248 248 249 249
269 268 268 267 266 266 265 265 264 263 262 260 259 259 259 259 258 258 257 257 256 255 254 254 253 253 254 254 254 255 254 254 253 252 251 250 250 249 248 247 246 246 246 246 245 245 245 244 244 244 244 244 244 244 244 244 245 245 246 246 246 246 246 246 246 245 243 242 242 244 245 247 248 249 248 247 246 246 247 248 249 249 249 250 250
270 269 268 267 266 265 265 265 265 264 263 262 261 260 259 259 258 258 258 257 256 256 255 254 253 253 253 253 253 253 254 254 254 253 252 251 250 249 249 248 247 246 246 245 245 245 245 244 244 244 244 244 244 244 244 244 245 245 245 246 246 246 246 246 246 246 245 243 243 243 244 245 247 249 250 250 249 248 248 248 249 249 250 250 251
271 270 269 268 267 266 265 265 264 264 263 263 262 261 260 259 259 258 258 257 257 256 256 255 254 253 253 253 253 253 253 253 253 253 253 252 251 250 249 249 248 247 246 246 245 245 245 245 244 244 244 244 244 244 244 244 244 245 245 245 245 246 246 246 246 246 246 245 244 243 243 244 246 247 249 250 251 251 250 250 250 250 250 250 251
271 271 270 269 268 267 267 266 265 264 263 263 262 261 261 260 259 259 258 258 257 257 257 256 255 254 253 253 252 253 253 253 253 253 253 253 252 251 250 249 249 248 248 247 246 245 245 245 245 245 244 244 244 244 244 244 244 244 245 245 245 245 245 246 246 246 246 246 245 244 244 244 245 246 247 249 250 251 251 252 252 252 252 252 252
273 272 271 270 269 269 268 267 266 265 264 263 262 262 261 260 260 259 259 258 258 257 257 257 256 256 255 254 253 252 252 253 253 253 253 253 253 252 251 250 249 249 248 248 247 246 245 245 245 245 245 245 244 244 244 244 244 244 244 245 245 245 245 245 246 246 246 246 246 246 245 245 245 245 246 248 249 250 252 252 253 253 254 254 254
275 274 273 272 271 269 268 268 267 266 266 265 264 263 263 262 261 260 259 259 258 258 257 257 256 256 256 255 255 254 253 252 252 252 253 253 253 252 252 251 250 249 249 248 248 247 246 246 245 245 245 245 245 245 245 244 244 245 245 245 245 245 245 245 246 246 246 246 246 247 246 246 246 246 246 247 249 250 251 251 252 252 253 254 255
276 275 274 273 272 271 270 269 268 267 266 266 265 264 264 263 262 261 260 259 258 258 257 257 256 256 256 256 255 255 254 253 252 252 251 252 252 252 252 251 250 250 249 249 248 248 247 247 246 245 245 245 245 245 245 245 245 245 245 245 245 245 245 245 246 246 246 246 246 246 247 247 247 247 247 247 248 248 249 250 251 252 252 253 254
277 275 274 273 272 271 271 270 269 268 267 266 266 265 264 264 263 262 261 260 259 258 258 257 257 256 256 256 255 255 255 254 254 253 252 251 251 252 252 252 251 250 249 249 248 248 247 247 246 246 245 245 245 245 244 245 245 245 245 245 245 245 245 245 246 246 246 246 246 246 246 247 247 247 247 247 247 248 248 249 250 251 252 252 254
279 277 276 274 273 272 271 270 269 269 268 267 266 265 265 264 264 263 263 262 260 259 259 258 258 257 256 255 255 255 254 254 254 254 253 252 251 251 251 252 252 251 250 249 248 248 247 247 246 246 245 245 245 245 245 244 244 244 244 244 245 245 245 245 246 246 246 246 246 247 247 247 247 247 247 248 248 248 248 249 249 250 251 252 252
280 279 277 276 275 273 272 271 270 270 269 268 266 265 265 264 264 264 264 263 262 261 260 258 258 257 257 256 255 255 255 255 254 254 254 254 253 252 251 251 252 252 251 250 248 247 246 246 246 246 246 245 245 245 245 245 244 244 244 244 244 244 245 245 246 246 246 246 247 247 247 247 247 247 247 248 248 248 248 248 249 250 250 251 252
283 281 279 277 276 275 273 272 272 271 270 270 269 267 266 265 264 263 263 263 263 262 261 260 258 257 257 256 256 256 255 255 255 254 254 254 254 254 253 251 251 251 252 251 249 248 246 245 245 245 245 245 245 245 244 244 244 244 244 243 243 244 244 244 245 246 246 247 247 247 247 247 247 247 247 248 248 249 249 249 249 249 250 251 251
285 283 281 279 278 276 275 274 273 272 272 271 271 270 269 267 266 264 263 262 262 262 262 261 260 259 258 257 256 256 256 255 255 255 255 254 254 254 254 253 251 251 251 251 250 249 247 245 244 244 244 244 245 245 244 244 244 244 244 243 243 243 243 244 244 245 246 246 247 247 247 247 247 247 247 247 248 248 249 249 249 250 250 251 251
286 285 283 282 280 278 276 275 274 273 273 272 271 271 270 269 268 266 265 264 263 262 261 261 260 260 259 258 257 257 256 256 256 255 255 254 254 254 254 253 252 251 251 251 250 249 248 246 245 244 243 243 243 244 244 244 243 243 243 243 243 243 243 243 244 244 244 245 246 246 247 247 247 247 247 247 247 248 249 249 250 250 250 251 252
287 286 285 283 281 280 278 276 275 274 273 273 272 271 270 269 269 267 266 265 264 263 262 261 260 260 259 259 258 258 258 257 256 256 256 255 254 254 253 253 252 251 250 250 250 250 249 247 245 244 242 242 242 243 243 243 243 243 243 243 243 243 243 243 243 244 244 244 245 245 246 247 247 247 247 247 248 248 248 249 249 250 251 251 252
289 287 286 284 283 281 280 278 276 275 274 273 273 272 271 270 269 268 267 267 265 264 263 262 261 260 260 259 259 258 258 258 257 257 257 256 256 255 254 253 252 251 249 249 249 249 249 248 246 244 242 241 241 241 242 242 243 243 243 243 243 243 243 243 243 243 243 243 244 244 245 246 246 247 247 248 248 248 248 249 249 250 250 250 251
291 289 287 285 284 282 281 279 278 277 276 275 274 273 272 271 271 269 269 268 267 266 265 264 263 261 260 259 259 258 257 258 258 257 257 257 257 256 255 253 252 251 249 248 247 247 248 247 246 244 242 241 240 240 241 241 242 242 242 242 242 243 243 243 243 243 243 243 243 244 244 245 245 246 247 247 248 248 249 249 249 250 250 250 251
292 290 289 287 285 283 282 281 279 278 277 275 274 274 273 273 272 271 270 269 268 267 266 266 265 263 261 259 259 258 257 257 257 257 257 257 257 256 256 255 253 251 249 248 247 246 245 246 246 245 243 242 240 239 240 240 241 241 242 242 242 242 242 243 243 243 243 243 243 243 244 244 244 245 246 247 247 248 248 249 249 249 250 250 251
293 291 289 288 286 284 283 282 281 280 279 277 276 275 274 273 273 272 272 271 269 268 268 267 267 265 263 261 260 259 258 257 257 257 256 256 256 256 255 255 254 252 249 247 246 245 244 244 244 244 244 242 241 240 239 239 240 240 241 241 241 241 241 242 243 243 243 244 244 244 244 244 244 245 245 246 247 247 248 249 249 249 250 250 251
294 292 291 289 287 285 283 282 281 280 280 279 278 277 276 275 274 273 273 272 270 269 269 268 267 267 266 264 262 260 259 258 257 257 256 256 255 255 254 253 253 252 250 248 245 244 243 243 243 243 243 242 241 240 239 239 239 240 240 241 241 241 241 241 242 243 243 244 244 244 244 244 244 245 245 246 246 247 248 248 249 249 250 250 251
296 294 292 291 289 287 285 284 282 281 280 279 279 278 278 277 276 275 274 272 271 271 270 269 268 267 266 265 263 262 260 259 258 257 256 255 255 254 253 252 252 252 250 248 245 243 242 242 242 242 242 241 241 240 240 240 240 240 240 240 240 241 241 241 241 242 243 243 244 244 244 245 245 245 245 246 246 246 247 247 248 249 249 250 251
297 296 294 293 291 290 288 286 284 282 281 280 279 279 278 277 276 276 274 273 273 272 272 271 270 269 268 266 264 263 261 260 258 257 256 255 254 253 252 252 251 251 250 249 246 244 243 242 242 241 241 241 241 240 240 239 239 239 240 240 239 240 240 241 241 241 242 242 243 243 244 244 245 245 245 246 246 246 247 247 247 248 249 249 250
298 297 296 295 293 292 291 289 287 285 284 282 281 279 278 277 276 275 274 274 273 273 273 272 271 270 269 268 266 264 262 261 258 256 255 255 254 253 252 251 250 250 250 250 248 246 244 243 243 242 241 240 240 240 239 239 238 239 239 239 239 239 239 240 240 241 241 242 242 243 243 244 244 245 245 246 246 246 247 247 247 248 248 249 250
298 297 296 295 294 294 293 291 289 287 286 284 283 281 280 279 277 276 275 274 274 273 273 272 271 270 270 269 267 266 264 262 260 258 255 254 252 251 251 250 249 249 249 249 249 248 246 244 243 242 241 240 239 239 238 238 238 238 239 239 239 239 239 239 240 240 241 241 242 243 243 244 244 245 245 246 246 247 247 247 248 248 248 249 249
299 298 297 296 295 294 293 291 290 288 287 286 285 283 282 281 280 278 277 275 275 274 274 273 272 270 270 269 268 267 265 263 262 259 257 254 252 250 249 249 248 247 247 247 248 248 247 245 243 242 241 240 239 239 239 239 238 239 239 239 239 239 239 239 240 240 241 241 241 242 243 243 244 245 245 246 246 247 247 248 248 249 249 249 250
300 299 298 296 295 295 293 291 290 289 288 287 286 285 284 283 282 281 280 278 277 276 275 275 273 271 270 269 268 267 266 264 262 261 259 257 254 252 250 248 247 247 246 246 246 246 246 245 244 242 241 240 238 238 238 238 238 239 239 240 240 240 240 239 239 240 240 241 241 241 242 243 243 244 245 246 246 247 247 248 249 249 250 250 250
301 300 299 297 297 296 294 292 290 290 289 288 287 286 284 283 282 281 280 280 279 278 276 275 275 273 272 270 269 268 267 265 264 262 261 259 257 255 252 250 248 247 246 245 244 244 244 244 243 242 241 240 239 238 237 237 238 238 238 239 239 240 240 240 240 240 240 241 241 241 242 242 243 244 245 246 247 247 248 248 249 249 250 250 251
303 302 300 299 298 297 295 293 291 290 290 289 288 287 285 284 283 282 280 279 279 279 278 276 275 274 272 271 270 269 268 267 265 263 262 261 259 257 255 252 250 249 247 246 245 244 243 243 242 241 241 241 240 239 237 237 237 237 238 238 239 239 240 240 240 241 241 241 241 242 242 242 243 243 244 245 246 247 248 248 249 250 250 251 251
304 303 302 300 299 298 296 294 293 292 290 289 289 288 286 284 283 282 281 279 278 278 278 277 275 274 273 271 271 270 269 268 267 265 263 262 260 258 256 254 252 250 249 247 246 245 243 242 241 241 240 240 240 239 238 237 237 237 238 238 238 239 240 240 241 241 241 242 242 242 242 242 242 243 243 244 245 246 247 248 249 250 251 251 252
304 304 303 302 301 299 298 296 295 294 292 290 288 288 287 284 282 281 281 281 279 277 278 277 275 274 273 272 271 270 269 268 267 265 264 262 261 259 258 256 254 252 250 248 246 245 243 242 241 240 240 240 240 239 239 238 238 238 238 238 238 238 239 240 240 241 241 241 242 242 243 243 243 243 243 244 245 245 246 247 249 250 251 251 252
305 304 304 303 301 300 299 297 296 295 294 292 289 288 287 285 283 280 280 281 280 278 276 276 275 273 272 272 270 270 269 268 267 265 264 263 262 260 259 257 255 253 252 250 248 246 244 243 241 240 239 239 239 239 238 238 238 237 237 238 238 238 239 239 240 240 241 241 242 242 243 243 244 244 244 245 245 245 246 247 248 249 250 251 252
305 304 304 303 302 301 300 298 297 296 295 294 291 289 287 286 284 281 279 279 280 278 276 275 274 273 272 271 270 269 268 267 266 265 264 263 262 261 259 258 256 255 253 251 250 247 245 243 241 240 239 239 238 238 238 237 237 237 237 238 238 239 239 239 240 240 241 241 242 242 243 244 244 245 245 246 246 246 247 247 248 249 250 251 252
306 305 304 303 302 302 300 299 298 296 296 295 293 290 288 286 285 283 280 278 279 278 277 275 273 272 271 270 270 269 267 266 265 264 264 263 262 261 259 258 257 255 254 252 250 249 246 244 242 240 239 238 238 237 237 237 236 236 236 237 238 239 239 240 240 240 241 242 242 243 244 244 245 245 246 247 247 248 248 249 249 250 250 251 252
307 306 304 303 302 302 301 300 298 297 297 297 295 292 289 287 285 283 281 279 278 278 277 275 273 272 271 270 269 267 266 265 264 264 263 262 262 260 259 258 256 255 254 253 251 250 248 246 243 241 239 238 237 237 236 236 236 236 236 236 237 238 239 240 240 241 241 242 243 244 244 245 246 246 247 247 248 248 249 249 250 250 251 251 252
308 306 305 304 303 302 301 300 298 297 297 297 296 294 290 288 287 285 282 280 278 277 277 276 274 272 271 269 268 267 266 264 264 263 262 261 260 260 259 258 257 255 254 252 251 250 249 247 245 242 240 239 237 236 236 235 235 235 235 236 236 237 238 239 240 241 241 242 243 244 245 245 246 247 247 248 249 249 250 250 251 251 252 252 253
308 307 306 305 304 303 302 300 298 297 296 297 297 295 292 290 288 286 284 281 279 278 276 275 274 273 271 269 268 267 265 264 263 262 261 260 259 259 258 257 257 256 254 252 251 249 248 247 245 243 241 239 238 237 236 236 235 235 235 235 236 237 237 238 239 240 241 241 242 243 244 245 246 246 247 248 249 249 250 251 251 252 252 253 254
308 307 306 305 305 304 302 301 298 297 296 296 296 295 293 290 288 287 285 283 280 278 277 276 274 273 271 269 267 266 265 264 263 262 260 259 258 258 257 256 256 255 254 253 251 249 248 246 245 243 242 240 239 237 236 236 235 235 235 235 236 236 237 237 238 239 239 240 241 242 243 244 244 245 246 247 248 249 250 251 252 252 253 254 254
307 307 306 305 305 304 303 301 299 297 296 296 296 295 293 291 289 287 285 283 281 279 278 276 275 273 271 269 267 266 265 264 263 261 260 259 258 257 256 256 255 254 253 252 251 250 248 247 245 243 242 240 239 237 236 236 235 235 235 236 236 236 237 237 238 238 239 240 241 241 242 243 244 245 246 247 248 249 250 251 252 253 253 254 255
308 308 307 307 305 304 302 300 299 297 296 295 295 294 293 292 290 288 286 284 282 280 278 276 275 274 272 270 268 266 265 263 262 262 260 259 258 257 256 256 255 254 253 252 251 249 248 247 246 244 242 240 239 237 236 235 235 235 235 235 236 236 237 237 238 239 240 240 241 242 243 244 245 246 247 248 248 249 250 251 252 252 253 254 254
309 309 308 307 305 304 302 300 298 297 296 295 294 293 292 291 290 288 287 285 283 281 279 277 275 274 272 270 268 266 265 264 263 262 261 259 258 257 256 255 255 254 253 252 251 250 248 247 246 245 244 242 241 239 238 236 236 235 235 235 235 236 236 237 238 239 240 241 242 243 244 244 245 246 247 248 248 249 250 251 252 252 253 254 254
308 308 307 306 305 303 301 299 298 297 296 295 294 293 292 290 288 287 286 285 283 282 280 278 276 274 272 271 269 267 265 264 263 262 261 260 259 258 256 255 254 254 253 252 251 250 249 248 246 245 245 243 242 241 240 239 238 237 237 237 237 237 237 238 238 239 240 241 242 243 244 245 246 247 247 248 249 250 251 251 252 253 254 255 255
307 307 306 305 304 302 300 299 298 297 296 296 295 294 293 291 289 287 286 285 283 281 280 278 277 275 273 271 270 268 266 265 264 262 261 260 259 258 257 256 254 253 252 251 250 250 249 248 247 246 245 245 244 243 242 242 241 240 240 239 239 239 239 240 240 241 242 243 243 244 245 246 247 248 249 250 251 252 252 253 254 254 255 255 255
307 307 305 304 303 302 301 300 299 298 297 296 295 295 294 293 291 288 286 285 284 282 280 278 277 275 273 271 269 268 267 266 264 263 262 261 259 259 258 256 255 254 252 251 251 250 249 249 248 247 247 246 245 244 244 243 242 242 242 242 242 242 242 242 242 243 243 244 245 246 247 247 248 249 250 251 251 252 252 253 253 254 254 254 255
308 307 307 305 303 302 301 301 300 299 298 296 295 294 293 292 291 290 287 285 283 282 281 279 277 276 274 272 269 268 267 266 264 263 262 261 260 259 258 257 256 255 253 252 251 250 250 249 248 248 247 246 246 245 245 244 243 243 242 242 242 243 243 243 243 243 244 245 245 246 246 247 248 248 249 250 251 251 252 253 253 254 254 255 256
310 309 308 307 306 304 303 302 301 300 299 298 296 295 293 292 291 290 288 286 283 281 280 279 277 276 274 273 271 268 267 265 264 263 262 261 260 259 258 257 256 256 255 253 251 250 250 249 249 248 247 247 246 246 246 245 245 244 244 244 244 244 244 244 245 245 245 246 246 247 247 248 248 249 250 250 251 251 252 253 253 254 255 256 256
310 309 308 307 307 306 305 304 303 302 301 300 298 297 295 293 291 290 289 287 284 282 280 278 277 275 274 273 271 270 267 265 264 262 262 261 260 259 258 257 257 256 255 254 252 251 250 249 249 248 248 247 247 247 246 246 246 246 246 246 247 247 247 247 247 247 248 248 248 249 249 250 250 251 251 252 252 253 253 254 254 255 256 256 256
309 308 307 306 305 305 305 304 304 303 302 300 299 298 296 294 292 291 289 288 286 283 280 278 277 276 274 272 271 270 268 266 264 262 261 261 260 259 257 256 256 255 254 254 253 252 251 250 249 248 247 247 247 247 247 247 247 247 247 247 247 248 248 248 249 249 249 250 250 250 251 251 252 252 252 253 253 254 254 255 255 256 256 257 257
309 308 307 306 305 305 304 304 304 303 302 301 299 298 296 294 292 291 289 287 286 284 281 279 276 275 274 272 271 270 269 267 265 263 261 260 260 259 258 256 255 254 253 253 252 252 251 250 249 248 247 246 246 246 246 246 246 246 246 246 247 247 247 248 248 249 249 250 250 251 251 252 252 253 253 253 254 254 255 256 256 256 257 257 257
309 308 307 306 306 305 305 304 303 302 301 300 299 298 296 295 293 291 289 287 286 284 282 279 276 274 272 272 270 269 268 267 266 264 262 261 259 258 257 256 255 254 254 253 252 251 250 250 249 249 248 247 246 246 246 246 246 246 246 246 246 247 247 247 248 248 249 249 250 250 251 251 252 253 253 254 255 255 256 256 256 257 257 257 258